Location: Владивосток
(43.1151°N, 131.8856°E)
Time: 18:40:28
(UTC+10:00)

DUCHIFAT 1 - Pass Details

Date: 04 July 2022
Orbit: 580 x 596 km, 98.0° (Epoch: 09 August)

Event Time Altitude Azimuth Distance (km) Brightness Sun altitude
Rises 04:44:40 0° 360° (N) 2,845 ? -8.5°
Reaches altitude 10° 04:47:09 10° 346° (NNW) 1,940 ? -8.2°
Maximum altitude 04:50:31 24° 293° (WNW) 1,257 ? -7.7°
Drops below altitude 10° 04:53:53 10° 240° (WSW) 1,932 ? -7.3°
Enters shadow 04:54:10 - 238° (WSW) 2,026 ? -7.2°
